"""""""Sample Date""""","""""Sample Time""""","""""Sensor Name""""","""""Sensor Type""""","""""Sensor S/N""""","""""Statistics""""","""""Loc Chg""""","""""Location""""","""""Manifold""""","""""Laser OK""""","""""Flow OK""""","""""<5% Coinc.""""","""""Sample Valid""""","""""Sample Interval""""","""""Volume Units""""","""""Sample Volume""""","""""Number Channels""""","""""Size 1""""","""""Counts 1""""","""""Size 2""""","""""Counts 2""""","""""Size 3""""","""""Counts 3""""","""""Size 4""""","""""Counts 4""""","""""Size 5""""","""""Counts 5""""","""""Size 6""""","""""Counts 6""""","""""Number Analog""""","""""Name 1""""","""""Units 1""""","""""Avg 1""""","""""Min 1 """"","""""Max 1""""","""""Name 2""""","""""Units 2""""","""""Avg 2""""","""""Min 2 """"","""""Max 2""""","""""Name 3""""","""""Units 3""""","""""Avg 3""""","""""Min 3 """"","""""Max 3""""","""""Name 4""""","""""Units 4""""","""""Avg 4""""","""""Min 4 """"","""""Max 4""""","""""Name 5""""","""""Units 5""""","""""Avg 5""""","""""Min 5 """"","""""Max 5""""","""""Name 6""""","""""Units 6""""","""""Avg 6""""","""""Min 6 """"","""""Max 6"""""""
"""2005/01/13",13:57:52,"""""Lasair TWO""""","""""LasairII-110""""",36043,"""""""""",*,"""""RICO""""",0,1,1,0,0,0:01:00,CM,0.02831,6,0.1,1478919,0.2,10074,0.3,0,0.5,0,1,0,5,0,"0""",,,,,,,,,,,,,,,,,,,,,,,,,,,,,,
"""2005/01/13",13:58:52,"""""Lasair TWO""""","""""LasairII-110""""",36043,"""""""""",.,"""""RICO""""",0,1,1,0,0,0:01:00,CM,0.02833,6,0.1,1441565,0.2,7962,0.3,0,0.5,0,1,0,5,0,"0""",,,,,,,,,,,,,,,,,,,,,,,,,,,,,,
"""2005/01/13",13:59:52,"""""Lasair TWO""""","""""LasairII-110""""",36043,"""""""""",.,"""""RICO""""",0,1,1,0,0,0:01:00,CM,0.02832,6,0.1,1420239,0.2,6779,0.3,0,0.5,0,1,0,5,0,"0""",,,,,,,,,,,,,,,,,,,,,,,,,,,,,,
"""2005/01/13",14:00:52,"""""Lasair TWO""""","""""LasairII-110""""",36043,"""""""""",.,"""""RICO""""",0,1,1,0,0,0:01:00,CM,0.02832,6,0.1,1418098,0.2,7834,0.3,0,0.5,0,1,0,5,0,"0""",,,,,,,,,,,,,,,,,,,,,,,,,,,,,,
"""2005/01/13",14:01:52,"""""Lasair TWO""""","""""LasairII-110""""",36043,"""""""""",.,"""""RICO""""",0,1,1,0,0,0:01:00,CM,0.02832,6,0.1,1392546,0.2,7891,0.3,0,0.5,0,1,0,5,0,"0""",,,,,,,,,,,,,,,,,,,,,,,,,,,,,,
"""2005/01/13",14:02:52,"""""Lasair TWO""""","""""LasairII-110""""",36043,"""""""""",.,"""""RICO""""",0,1,1,0,0,0:01:00,CM,0.02832,6,0.1,1353085,0.2,7057,0.3,0,0.5,0,1,0,5,0,"0""",,,,,,,,,,,,,,,,,,,,,,,,,,,,,,
"""2005/01/13",14:03:52,"""""Lasair TWO""""","""""LasairII-110""""",36043,"""""""""",.,"""""RICO""""",0,1,1,0,0,0:01:00,CM,0.02831,6,0.1,1336414,0.2,6158,0.3,0,0.5,0,1,0,5,0,"0""",,,,,,,,,,,,,,,,,,,,,,,,,,,,,,
"""2005/01/13",14:04:52,"""""Lasair TWO""""","""""LasairII-110""""",36043,"""""""""",.,"""""RICO""""",0,1,1,0,0,0:01:00,CM,0.02831,6,0.1,1311934,0.2,5969,0.3,0,0.5,0,1,0,5,0,"0""",,,,,,,,,,,,,,,,,,,,,,,,,,,,,,
"""2005/01/13",14:05:52,"""""Lasair TWO""""","""""LasairII-110""""",36043,"""""""""",.,"""""RICO""""",0,1,1,0,0,0:01:00,CM,0.02833,6,0.1,1327964,0.2,6715,0.3,0,0.5,0,1,0,5,0,"0""",,,,,,,,,,,,,,,,,,,,,,,,,,,,,,
"""2005/01/13",14:06:52,"""""Lasair TWO""""","""""LasairII-110""""",36043,"""""""""",.,"""""RICO""""",0,1,1,0,0,0:01:00,CM,0.02831,6,0.1,1355520,0.2,7714,0.3,0,0.5,0,1,0,5,0,"0""",,,,,,,,,,,,,,,,,,,,,,,,,,,,,,
"""2005/01/13",14:07:52,"""""Lasair TWO""""","""""LasairII-110""""",36043,"""""""""",.,"""""RICO""""",0,1,1,0,0,0:01:00,CM,0.02831,6,0.1,1367594,0.2,7704,0.3,0,0.5,0,1,0,5,0,"0""",,,,,,,,,,,,,,,,,,,,,,,,,,,,,,
"""2005/01/13",14:08:52,"""""Lasair TWO""""","""""LasairII-110""""",36043,"""""""""",.,"""""RICO""""",0,1,1,0,0,0:01:00,CM,0.02832,6,0.1,1365951,0.2,6863,0.3,0,0.5,0,1,0,5,0,"0""",,,,,,,,,,,,,,,,,,,,,,,,,,,,,,
"""2005/01/13",14:09:52,"""""Lasair TWO""""","""""LasairII-110""""",36043,"""""""""",.,"""""RICO""""",0,1,1,0,0,0:01:00,CM,0.02832,6,0.1,1349352,0.2,7805,0.3,0,0.5,0,1,0,5,0,"0""",,,,,,,,,,,,,,,,,,,,,,,,,,,,,,
"""2005/01/13",14:10:52,"""""Lasair TWO""""","""""LasairII-110""""",36043,"""""""""",.,"""""RICO""""",0,1,1,0,0,0:01:00,CM,0.02831,6,0.1,1345648,0.2,7629,0.3,0,0.5,0,1,0,5,0,"0""",,,,,,,,,,,,,,,,,,,,,,,,,,,,,,
"""2005/01/13",14:11:52,"""""Lasair TWO""""","""""LasairII-110""""",36043,"""""""""",.,"""""RICO""""",0,1,1,0,0,0:01:00,CM,0.02833,6,0.1,1324601,0.2,6999,0.3,0,0.5,0,1,0,5,0,"0""",,,,,,,,,,,,,,,,,,,,,,,,,,,,,,
"""2005/01/13",14:12:52,"""""Lasair TWO""""","""""LasairII-110""""",36043,"""""""""",.,"""""RICO""""",0,1,1,0,0,0:01:00,CM,0.0283,6,0.1,1374920,0.2,11097,0.3,0,0.5,0,1,0,5,0,"0"""
"""2005/01/13",14:13:52,"""""Lasair TWO""""","""""LasairII-110""""",36043,"""""""""",.,"""""RICO""""",0,1,1,0,0,0:01:00,CM,0.02832,6,0.1,1414087,0.2,10591,0.3,0,0.5,0,1,0,5,0,"0"""
"""2005/01/13",14:14:52,"""""Lasair TWO""""","""""LasairII-110""""",36043,"""""""""",.,"""""RICO""""",0,1,1,0,0,0:01:00,CM,0.02832,6,0.1,1427502,0.2,14927,0.3,0,0.5,0,1,0,5,0,"0"""
"""2005/01/13",14:15:52,"""""Lasair TWO""""","""""LasairII-110""""",36043,"""""""""",.,"""""RICO""""",0,1,1,0,0,0:01:00,CM,0.02833,6,0.1,1481216,0.2,16832,0.3,0,0.5,0,1,0,5,0,"0"""
"""2005/01/13",14:16:52,"""""Lasair TWO""""","""""LasairII-110""""",36043,"""""""""",.,"""""RICO""""",0,1,1,0,0,0:01:00,CM,0.0283,6,0.1,1513631,0.2,19477,0.3,0,0.5,0,1,0,5,0,"0"""
"""2005/01/13",14:17:52,"""""Lasair TWO""""","""""LasairII-110""""",36043,"""""""""",.,"""""RICO""""",0,1,1,0,0,0:01:00,CM,0.02832,6,0.1,1535189,0.2,18502,0.3,0,0.5,0,1,0,5,0,"0"""
"""2005/01/13",14:18:52,"""""Lasair TWO""""","""""LasairII-110""""",36043,"""""""""",.,"""""RICO""""",0,1,1,0,0,0:01:00,CM,0.02831,6,0.1,1520832,0.2,17033,0.3,0,0.5,0,1,0,5,0,"0"""
"""2005/01/13",14:19:52,"""""Lasair TWO""""","""""LasairII-110""""",36043,"""""""""",.,"""""RICO""""",0,1,1,0,0,0:01:00,CM,0.02833,6,0.1,1561426,0.2,19131,0.3,0,0.5,0,1,0,5,0,"0"""
"""2005/01/13",14:20:52,"""""Lasair TWO""""","""""LasairII-110""""",36043,"""""""""",.,"""""RICO""""",0,1,1,0,0,0:01:00,CM,0.02831,6,0.1,1625871,0.2,27961,0.3,0,0.5,0,1,0,5,0,"0"""
"""2005/01/13",14:21:52,"""""Lasair TWO""""","""""LasairII-110""""",36043,"""""""""",.,"""""RICO""""",0,1,1,0,0,0:01:00,CM,0.02833,6,0.1,1607068,0.2,22848,0.3,0,0.5,0,1,0,5,0,"0"""
"""2005/01/13",14:22:52,"""""Lasair TWO""""","""""LasairII-110""""",36043,"""""""""",.,"""""RICO""""",0,1,1,0,0,0:01:00,CM,0.02831,6,0.1,1585795,0.2,18124,0.3,0,0.5,0,1,0,5,0,"0"""
"""2005/01/13",14:23:52,"""""Lasair TWO""""","""""LasairII-110""""",36043,"""""""""",.,"""""RICO""""",0,1,1,0,0,0:01:00,CM,0.02831,6,0.1,1623248,0.2,20433,0.3,0,0.5,0,1,0,5,0,"0"""
"""2005/01/13",14:24:52,"""""Lasair TWO""""","""""LasairII-110""""",36043,"""""""""",.,"""""RICO""""",0,1,1,0,0,0:01:00,CM,0.02833,6,0.1,1652987,0.2,25565,0.3,0,0.5,0,1,0,5,0,"0"""
"""2005/01/13",14:25:52,"""""Lasair TWO""""","""""LasairII-110""""",36043,"""""""""",.,"""""RICO""""",0,1,1,0,0,0:01:00,CM,0.02831,6,0.1,1606869,0.2,21983,0.3,0,0.5,0,1,0,5,0,"0"""
"""2005/01/13",14:26:52,"""""Lasair TWO""""","""""LasairII-110""""",36043,"""""""""",.,"""""RICO""""",0,1,1,0,0,0:01:00,CM,0.02832,6,0.1,1591315,0.2,17283,0.3,0,0.5,0,1,0,5,0,"0"""
"""2005/01/13",14:27:52,"""""Lasair TWO""""","""""LasairII-110""""",36043,"""""""""",.,"""""RICO""""",0,1,1,0,0,0:01:00,CM,0.02832,6,0.1,1594821,0.2,21015,0.3,0,0.5,0,1,0,5,0,"0"""
"""2005/01/13",14:28:52,"""""Lasair TWO""""","""""LasairII-110""""",36043,"""""""""",.,"""""RICO""""",0,1,1,0,0,0:01:00,CM,0.02831,6,0.1,1554994,0.2,18529,0.3,0,0.5,0,1,0,5,0,"0"""
"""2005/01/13",14:29:52,"""""Lasair TWO""""","""""LasairII-110""""",36043,"""""""""",.,"""""RICO""""",0,1,1,0,0,0:01:00,CM,0.02832,6,0.1,1539044,0.2,15628,0.3,0,0.5,0,1,0,5,0,"0"""
"""2005/01/13",14:30:52,"""""Lasair TWO""""","""""LasairII-110""""",36043,"""""""""",.,"""""RICO""""",0,1,1,0,0,0:01:00,CM,0.02831,6,0.1,1529305,0.2,15622,0.3,0,0.5,0,1,0,5,0,"0"""
"""2005/01/13",14:31:52,"""""Lasair TWO""""","""""LasairII-110""""",36043,"""""""""",.,"""""RICO""""",0,1,1,0,0,0:01:00,CM,0.02832,6,0.1,1597785,0.2,22119,0.3,0,0.5,0,1,0,5,0,"0"""
"""2005/01/13",14:32:52,"""""Lasair TWO""""","""""LasairII-110""""",36043,"""""""""",.,"""""RICO""""",0,1,1,0,0,0:01:00,CM,0.02831,6,0.1,1620907,0.2,24260,0.3,0,0.5,0,1,0,5,0,"0"""
"""2005/01/13",14:33:52,"""""Lasair TWO""""","""""LasairII-110""""",36043,"""""""""",.,"""""RICO""""",0,1,1,0,0,0:01:00,CM,0.02832,6,0.1,1608456,0.2,20192,0.3,0,0.5,0,1,0,5,0,"0"""
"""2005/01/13",14:34:52,"""""Lasair TWO""""","""""LasairII-110""""",36043,"""""""""",.,"""""RICO""""",0,1,1,0,0,0:01:00,CM,0.02832,6,0.1,1568007,0.2,15085,0.3,0,0.5,0,1,0,5,0,"0"""
"""2005/01/13",14:35:52,"""""Lasair TWO""""","""""LasairII-110""""",36043,"""""""""",.,"""""RICO""""",0,1,1,0,0,0:01:00,CM,0.02832,6,0.1,1486982,0.2,8678,0.3,0,0.5,0,1,0,5,0,"0"""
"""2005/01/13",14:36:52,"""""Lasair TWO""""","""""LasairII-110""""",36043,"""""""""",.,"""""RICO""""",0,1,1,0,0,0:01:00,CM,0.02831,6,0.1,1463219,0.2,7460,0.3,0,0.5,0,1,0,5,0,"0"""
"""2005/01/13",14:37:52,"""""Lasair TWO""""","""""LasairII-110""""",36043,"""""""""",.,"""""RICO""""",0,1,1,0,0,0:01:00,CM,0.02832,6,0.1,1411661,0.2,6588,0.3,0,0.5,0,1,0,5,0,"0"""
"""2005/01/13",14:38:52,"""""Lasair TWO""""","""""LasairII-110""""",36043,"""""""""",.,"""""RICO""""",0,1,1,0,0,0:01:00,CM,0.02832,6,0.1,1389092,0.2,6108,0.3,0,0.5,0,1,0,5,0,"0"""
"""2005/01/13",14:39:52,"""""Lasair TWO""""","""""LasairII-110""""",36043,"""""""""",.,"""""RICO""""",0,1,1,0,0,0:01:00,CM,0.02832,6,0.1,1383255,0.2,5682,0.3,0,0.5,0,1,0,5,0,"0"""
"""2005/01/13",14:40:52,"""""Lasair TWO""""","""""LasairII-110""""",36043,"""""""""",.,"""""RICO""""",0,1,1,0,0,0:01:00,CM,0.02832,6,0.1,1362759,0.2,5413,0.3,0,0.5,0,1,0,5,0,"0"""
"""2005/01/13",14:41:52,"""""Lasair TWO""""","""""LasairII-110""""",36043,"""""""""",.,"""""RICO""""",0,1,1,0,0,0:01:00,CM,0.02832,6,0.1,1339036,0.2,4798,0.3,0,0.5,0,1,0,5,0,"0"""
"""2005/01/13",14:42:52,"""""Lasair TWO""""","""""LasairII-110""""",36043,"""""""""",.,"""""RICO""""",0,1,1,0,0,0:01:00,CM,0.02831,6,0.1,1345232,0.2,5191,0.3,0,0.5,0,1,0,5,0,"0"""
"""2005/01/13",14:43:52,"""""Lasair TWO""""","""""LasairII-110""""",36043,"""""""""",.,"""""RICO""""",0,1,1,0,0,0:01:00,CM,0.02832,6,0.1,1366690,0.2,5960,0.3,0,0.5,0,1,0,5,0,"0"""
"""2005/01/13",14:44:52,"""""Lasair TWO""""","""""LasairII-110""""",36043,"""""""""",.,"""""RICO""""",0,1,1,0,0,0:01:00,CM,0.02832,6,0.1,1362903,0.2,5865,0.3,0,0.5,0,1,0,5,0,"0"""
"""2005/01/13",14:45:52,"""""Lasair TWO""""","""""LasairII-110""""",36043,"""""""""",.,"""""RICO""""",0,1,1,0,0,0:01:00,CM,0.02831,6,0.1,1360909,0.2,5655,0.3,0,0.5,0,1,0,5,0,"0"""
"""2005/01/13",14:46:52,"""""Lasair TWO""""","""""LasairII-110""""",36043,"""""""""",.,"""""RICO""""",0,1,1,0,0,0:01:00,CM,0.02832,6,0.1,1364735,0.2,5608,0.3,0,0.5,0,1,0,5,0,"0"""
"""2005/01/13",14:47:52,"""""Lasair TWO""""","""""LasairII-110""""",36043,"""""""""",.,"""""RICO""""",0,1,1,0,0,0:01:00,CM,0.02832,6,0.1,1353500,0.2,5511,0.3,0,0.5,0,1,0,5,0,"0"""
"""2005/01/13",14:48:52,"""""Lasair TWO""""","""""LasairII-110""""",36043,"""""""""",.,"""""RICO""""",0,1,1,0,0,0:01:00,CM,0.02832,6,0.1,1348266,0.2,5584,0.3,0,0.5,0,1,0,5,0,"0"""
"""2005/01/13",14:49:52,"""""Lasair TWO""""","""""LasairII-110""""",36043,"""""""""",.,"""""RICO""""",0,1,1,0,0,0:01:00,CM,0.02831,6,0.1,1389885,0.2,8501,0.3,0,0.5,0,1,0,5,0,"0"""
"""2005/01/13",14:50:52,"""""Lasair TWO""""","""""LasairII-110""""",36043,"""""""""",.,"""""RICO""""",0,1,1,0,0,0:01:00,CM,0.02831,6,0.1,1417006,0.2,9231,0.3,0,0.5,0,1,0,5,0,"0"""
"""2005/01/13",14:51:52,"""""Lasair TWO""""","""""LasairII-110""""",36043,"""""""""",.,"""""RICO""""",0,1,1,0,0,0:01:00,CM,0.02832,6,0.1,1464070,0.2,15950,0.3,0,0.5,0,1,0,5,0,"0"""
"""2005/01/13",14:52:52,"""""Lasair TWO""""","""""LasairII-110""""",36043,"""""""""",.,"""""RICO""""",0,1,1,0,0,0:01:00,CM,0.02831,6,0.1,1471726,0.2,14547,0.3,0,0.5,0,1,0,5,0,"0"""
"""2005/01/13",14:53:52,"""""Lasair TWO""""","""""LasairII-110""""",36043,"""""""""",.,"""""RICO""""",0,1,1,0,0,0:01:00,CM,0.02832,6,0.1,1517680,0.2,15326,0.3,0,0.5,0,1,0,5,0,"0"""
"""2005/01/13",14:54:52,"""""Lasair TWO""""","""""LasairII-110""""",36043,"""""""""",.,"""""RICO""""",0,1,1,0,0,0:01:00,CM,0.02831,6,0.1,1494030,0.2,12198,0.3,0,0.5,0,1,0,5,0,"0"""
"""2005/01/13",14:55:52,"""""Lasair TWO""""","""""LasairII-110""""",36043,"""""""""",.,"""""RICO""""",0,1,1,0,0,0:01:00,CM,0.02832,6,0.1,1494684,0.2,10517,0.3,0,0.5,0,1,0,5,0,"0"""
"""2005/01/13",14:56:52,"""""Lasair TWO""""","""""LasairII-110""""",36043,"""""""""",.,"""""RICO""""",0,1,1,0,0,0:01:00,CM,0.02832,6,0.1,1493108,0.2,11218,0.3,0,0.5,0,1,0,5,0,"0"""
"""2005/01/13",14:57:52,"""""Lasair TWO""""","""""LasairII-110""""",36043,"""""""""",.,"""""RICO""""",0,1,1,0,0,0:01:00,CM,0.02832,6,0.1,1488683,0.2,13827,0.3,0,0.5,0,1,0,5,0,"0"""
"""2005/01/13",14:58:52,"""""Lasair TWO""""","""""LasairII-110""""",36043,"""""""""",.,"""""RICO""""",0,1,1,0,0,0:01:00,CM,0.02832,6,0.1,1508223,0.2,15126,0.3,0,0.5,0,1,0,5,0,"0"""
"""2005/01/13",14:59:52,"""""Lasair TWO""""","""""LasairII-110""""",36043,"""""""""",.,"""""RICO""""",0,1,1,0,0,0:01:00,CM,0.02831,6,0.1,1514488,0.2,13512,0.3,0,0.5,0,1,0,5,0,"0"""
"""2005/01/13",15:00:52,"""""Lasair TWO""""","""""LasairII-110""""",36043,"""""""""",.,"""""RICO""""",0,1,1,0,0,0:01:00,CM,0.0283,6,0.1,1527210,0.2,14843,0.3,0,0.5,0,1,0,5,0,"0"""
"""2005/01/13",15:01:52,"""""Lasair TWO""""","""""LasairII-110""""",36043,"""""""""",.,"""""RICO""""",0,1,1,0,0,0:01:00,CM,0.02832,6,0.1,1656524,0.2,22295,0.3,0,0.5,0,1,0,5,0,"0"""
"""2005/01/13",15:02:52,"""""Lasair TWO""""","""""LasairII-110""""",36043,"""""""""",.,"""""RICO""""",0,1,1,0,0,0:01:00,CM,0.02831,6,0.1,1837925,0.2,30816,0.3,0,0.5,0,1,0,5,0,"0"""
"""2005/01/13",15:03:52,"""""Lasair TWO""""","""""LasairII-110""""",36043,"""""""""",.,"""""RICO""""",0,1,1,0,0,0:01:00,CM,0.02833,6,0.1,1871002,0.2,30629,0.3,0,0.5,0,1,0,5,0,"0"""
"""2005/01/13",15:04:52,"""""Lasair TWO""""","""""LasairII-110""""",36043,"""""""""",.,"""""RICO""""",0,1,1,0,0,0:01:00,CM,0.0283,6,0.1,1861343,0.2,33595,0.3,0,0.5,0,1,0,5,0,"0"""
"""2005/01/13",15:05:52,"""""Lasair TWO""""","""""LasairII-110""""",36043,"""""""""",.,"""""RICO""""",0,1,1,0,0,0:01:00,CM,0.02832,6,0.1,1816630,0.2,29829,0.3,0,0.5,0,1,0,5,0,"0"""
"""2005/01/13",15:06:52,"""""Lasair TWO""""","""""LasairII-110""""",36043,"""""""""",.,"""""RICO""""",0,1,1,0,0,0:01:00,CM,0.02831,6,0.1,1796537,0.2,27121,0.3,0,0.5,0,1,0,5,0,"0"""
"""2005/01/13",15:07:52,"""""Lasair TWO""""","""""LasairII-110""""",36043,"""""""""",.,"""""RICO""""",0,1,1,0,0,0:01:00,CM,0.02832,6,0.1,1779126,0.2,26710,0.3,0,0.5,0,1,0,5,0,"0"""
"""2005/01/13",15:08:52,"""""Lasair TWO""""","""""LasairII-110""""",36043,"""""""""",.,"""""RICO""""",0,1,0,0,0,0:01:00,CM,0.02832,6,0.1,1765175,0.2,29561,0.3,0,0.5,0,1,0,5,0,"0"""
"""2005/01/13",15:09:52,"""""Lasair TWO""""","""""LasairII-110""""",36043,"""""""""",.,"""""RICO""""",0,1,1,0,0,0:01:00,CM,0.02832,6,0.1,1716063,0.2,23415,0.3,0,0.5,0,1,0,5,0,"0"""
"""2005/01/13",15:10:52,"""""Lasair TWO""""","""""LasairII-110""""",36043,"""""""""",.,"""""RICO""""",0,1,1,0,0,0:01:00,CM,0.02831,6,0.1,1731499,0.2,20720,0.3,0,0.5,0,1,0,5,0,"0"""
"""2005/01/13",15:11:52,"""""Lasair TWO""""","""""LasairII-110""""",36043,"""""""""",.,"""""RICO""""",0,1,1,0,0,0:01:00,CM,0.02832,6,0.1,1749067,0.2,26723,0.3,0,0.5,0,1,0,5,0,"0"""
"""2005/01/13",15:12:52,"""""Lasair TWO""""","""""LasairII-110""""",36043,"""""""""",.,"""""RICO""""",0,1,1,0,0,0:01:00,CM,0.02832,6,0.1,1723302,0.2,26605,0.3,0,0.5,0,1,0,5,0,"0"""
"""2005/01/13",15:13:52,"""""Lasair TWO""""","""""LasairII-110""""",36043,"""""""""",.,"""""RICO""""",0,1,1,0,0,0:01:00,CM,0.02832,6,0.1,1695655,0.2,23340,0.3,0,0.5,0,1,0,5,0,"0"""
"""2005/01/13",15:14:52,"""""Lasair TWO""""","""""LasairII-110""""",36043,"""""""""",.,"""""RICO""""",0,1,1,0,0,0:01:00,CM,0.02831,6,0.1,1702746,0.2,25163,0.3,0,0.5,0,1,0,5,0,"0"""
"""2005/01/13",15:15:52,"""""Lasair TWO""""","""""LasairII-110""""",36043,"""""""""",.,"""""RICO""""",0,1,1,0,0,0:01:00,CM,0.02832,6,0.1,1694823,0.2,27923,0.3,0,0.5,0,1,0,5,0,"0"""
"""2005/01/13",15:16:52,"""""Lasair TWO""""","""""LasairII-110""""",36043,"""""""""",.,"""""RICO""""",0,1,1,0,0,0:01:00,CM,0.02831,6,0.1,1679312,0.2,28618,0.3,0,0.5,0,1,0,5,0,"0"""
"""2005/01/13",15:17:52,"""""Lasair TWO""""","""""LasairII-110""""",36043,"""""""""",.,"""""RICO""""",0,1,1,0,0,0:01:00,CM,0.02832,6,0.1,1701859,0.2,28288,0.3,0,0.5,0,1,0,5,0,"0"""
"""2005/01/13",15:18:52,"""""Lasair TWO""""","""""LasairII-110""""",36043,"""""""""",.,"""""RICO""""",0,1,1,0,0,0:01:00,CM,0.02833,6,0.1,1724254,0.2,27236,0.3,0,0.5,0,1,0,5,0,"0"""
"""2005/01/13",15:19:52,"""""Lasair TWO""""","""""LasairII-110""""",36043,"""""""""",.,"""""RICO""""",0,1,1,0,0,0:01:00,CM,0.02832,6,0.1,1750027,0.2,30678,0.3,0,0.5,0,1,0,5,0,"0"""
"""2005/01/13",15:20:52,"""""Lasair TWO""""","""""LasairII-110""""",36043,"""""""""",.,"""""RICO""""",0,1,1,0,0,0:01:00,CM,0.02831,6,0.1,1714893,0.2,23977,0.3,0,0.5,0,1,0,5,0,"0"""
"""2005/01/13",15:21:52,"""""Lasair TWO""""","""""LasairII-110""""",36043,"""""""""",.,"""""RICO""""",0,1,1,0,0,0:01:00,CM,0.02832,6,0.1,1643789,0.2,18198,0.3,0,0.5,0,1,0,5,0,"0"""
"""2005/01/13",15:22:52,"""""Lasair TWO""""","""""LasairII-110""""",36043,"""""""""",.,"""""RICO""""",0,1,1,0,0,0:01:00,CM,0.02832,6,0.1,1594461,0.2,15918,0.3,0,0.5,0,1,0,5,0,"0"""
"""2005/01/13",15:23:52,"""""Lasair TWO""""","""""LasairII-110""""",36043,"""""""""",.,"""""RICO""""",0,1,1,0,0,0:01:00,CM,0.02833,6,0.1,1515622,0.2,10817,0.3,0,0.5,0,1,0,5,0,"0"""
"""2005/01/13",15:24:52,"""""Lasair TWO""""","""""LasairII-110""""",36043,"""""""""",.,"""""RICO""""",0,1,1,0,0,0:01:00,CM,0.0283,6,0.1,1476602,0.2,10138,0.3,0,0.5,0,1,0,5,0,"0"""
"""2005/01/13",15:25:52,"""""Lasair TWO""""","""""LasairII-110""""",36043,"""""""""",.,"""""RICO""""",0,1,1,0,0,0:01:00,CM,0.02832,6,0.1,1486470,0.2,9630,0.3,0,0.5,0,1,0,5,0,"0"""
"""2005/01/13",15:26:52,"""""Lasair TWO""""","""""LasairII-110""""",36043,"""""""""",.,"""""RICO""""",0,1,1,0,0,0:01:00,CM,0.02832,6,0.1,1477187,0.2,9335,0.3,0,0.5,0,1,0,5,0,"0"""
"""2005/01/13",15:27:52,"""""Lasair TWO""""","""""LasairII-110""""",36043,"""""""""",.,"""""RICO""""",0,1,1,0,0,0:01:00,CM,0.02832,6,0.1,1459463,0.2,9117,0.3,0,0.5,0,1,0,5,0,"0"""
"""2005/01/13",15:28:52,"""""Lasair TWO""""","""""LasairII-110""""",36043,"""""""""",.,"""""RICO""""",0,1,1,0,0,0:01:00,CM,0.02833,6,0.1,1462341,0.2,8831,0.3,0,0.5,0,1,0,5,0,"0"""
"""2005/01/13",15:29:52,"""""Lasair TWO""""","""""LasairII-110""""",36043,"""""""""",.,"""""RICO""""",0,1,1,0,0,0:01:00,CM,0.02831,6,0.1,1443182,0.2,8988,0.3,0,0.5,0,1,0,5,0,"0"""
"""2005/01/13",15:30:52,"""""Lasair TWO""""","""""LasairII-110""""",36043,"""""""""",.,"""""RICO""""",0,1,1,0,0,0:01:00,CM,0.02833,6,0.1,1436340,0.2,9297,0.3,0,0.5,0,1,0,5,0,"0"""
"""2005/01/13",15:31:52,"""""Lasair TWO""""","""""LasairII-110""""",36043,"""""""""",.,"""""RICO""""",0,1,1,0,0,0:01:00,CM,0.02831,6,0.1,1413635,0.2,9059,0.3,0,0.5,0,1,0,5,0,"0"""
"""2005/01/13",15:32:52,"""""Lasair TWO""""","""""LasairII-110""""",36043,"""""""""",.,"""""RICO""""",0,1,1,0,0,0:01:00,CM,0.02832,6,0.1,1420478,0.2,8074,0.3,0,0.5,0,1,0,5,0,"0"""
"""2005/01/13",15:33:52,"""""Lasair TWO""""","""""LasairII-110""""",36043,"""""""""",.,"""""RICO""""",0,1,1,0,0,0:01:00,CM,0.02833,6,0.1,1386301,0.2,8399,0.3,0,0.5,0,1,0,5,0,"0"""
"""2005/01/13",15:34:52,"""""Lasair TWO""""","""""LasairII-110""""",36043,"""""""""",.,"""""RICO""""",0,1,1,0,0,0:01:00,CM,0.02831,6,0.1,1361317,0.2,8231,0.3,0,0.5,0,1,0,5,0,"0"""
"""2005/01/13",15:35:52,"""""Lasair TWO""""","""""LasairII-110""""",36043,"""""""""",.,"""""RICO""""",0,1,1,0,0,0:01:00,CM,0.02832,6,0.1,1368577,0.2,8338,0.3,0,0.5,0,1,0,5,0,"0"""
"""2005/01/13",15:36:52,"""""Lasair TWO""""","""""LasairII-110""""",36043,"""""""""",.,"""""RICO""""",0,1,1,0,0,0:01:00,CM,0.02832,6,0.1,1361835,0.2,8056,0.3,0,0.5,0,1,0,5,0,"0"""
"""2005/01/13",15:37:52,"""""Lasair TWO""""","""""LasairII-110""""",36043,"""""""""",.,"""""RICO""""",0,1,1,0,0,0:01:00,CM,0.02831,6,0.1,1376370,0.2,8346,0.3,0,0.5,0,1,0,5,0,"0"""
"""2005/01/13",15:38:52,"""""Lasair TWO""""","""""LasairII-110""""",36043,"""""""""",.,"""""RICO""""",0,1,1,0,0,0:01:00,CM,0.02832,6,0.1,1381103,0.2,9533,0.3,0,0.5,0,1,0,5,0,"0"""
"""2005/01/13",15:39:52,"""""Lasair TWO""""","""""LasairII-110""""",36043,"""""""""",.,"""""RICO""""",0,1,1,0,0,0:01:00,CM,0.02831,6,0.1,1418049,0.2,12229,0.3,0,0.5,0,1,0,5,0,"0"""
"""2005/01/13",15:40:52,"""""Lasair TWO""""","""""LasairII-110""""",36043,"""""""""",.,"""""RICO""""",0,1,1,0,0,0:01:00,CM,0.02831,6,0.1,1418593,0.2,11441,0.3,0,0.5,0,1,0,5,0,"0"""
"""2005/01/13",15:41:52,"""""Lasair TWO""""","""""LasairII-110""""",36043,"""""""""",.,"""""RICO""""",0,1,1,0,0,0:01:00,CM,0.02831,6,0.1,1437395,0.2,16671,0.3,0,0.5,0,1,0,5,0,"0"""
"""2005/01/13",15:42:52,"""""Lasair TWO""""","""""LasairII-110""""",36043,"""""""""",.,"""""RICO""""",0,1,1,0,0,0:01:00,CM,0.02832,6,0.1,1389341,0.2,10436,0.3,0,0.5,0,1,0,5,0,"0"""
"""2005/01/13",15:43:52,"""""Lasair TWO""""","""""LasairII-110""""",36043,"""""""""",.,"""""RICO""""",0,1,1,0,0,0:01:00,CM,0.02832,6,0.1,1405679,0.2,9274,0.3,0,0.5,0,1,0,5,0,"0"""
"""2005/01/13",15:44:52,"""""Lasair TWO""""","""""LasairII-110""""",36043,"""""""""",.,"""""RICO""""",0,1,1,0,0,0:01:00,CM,0.02832,6,0.1,1475080,0.2,13250,0.3,0,0.5,0,1,0,5,0,"0"""
"""2005/01/13",15:45:52,"""""Lasair TWO""""","""""LasairII-110""""",36043,"""""""""",.,"""""RICO""""",0,1,1,0,0,0:01:00,CM,0.02831,6,0.1,1537983,0.2,15427,0.3,0,0.5,0,1,0,5,0,"0"""
"""2005/01/13",15:46:52,"""""Lasair TWO""""","""""LasairII-110""""",36043,"""""""""",.,"""""RICO""""",0,1,1,0,0,0:01:00,CM,0.02833,6,0.1,1504630,0.2,12251,0.3,0,0.5,0,1,0,5,0,"0"""
"""2005/01/13",15:47:52,"""""Lasair TWO""""","""""LasairII-110""""",36043,"""""""""",.,"""""RICO""""",0,1,1,0,0,0:01:00,CM,0.0283,6,0.1,1478292,0.2,9544,0.3,0,0.5,0,1,0,5,0,"0"""
"""2005/01/13",15:48:52,"""""Lasair TWO""""","""""LasairII-110""""",36043,"""""""""",.,"""""RICO""""",0,1,1,0,0,0:01:00,CM,0.02831,6,0.1,1436299,0.2,8980,0.3,0,0.5,0,1,0,5,0,"0"""
"""2005/01/13",15:49:52,"""""Lasair TWO""""","""""LasairII-110""""",36043,"""""""""",.,"""""RICO""""",0,1,1,0,0,0:01:00,CM,0.02833,6,0.1,1445107,0.2,7545,0.3,0,0.5,0,1,0,5,0,"0"""
"""2005/01/13",15:50:52,"""""Lasair TWO""""","""""LasairII-110""""",36043,"""""""""",.,"""""RICO""""",0,1,1,0,0,0:01:00,CM,0.0283,6,0.1,1421214,0.2,7105,0.3,0,0.5,0,1,0,5,0,"0"""
"""2005/01/13",15:51:52,"""""Lasair TWO""""","""""LasairII-110""""",36043,"""""""""",.,"""""RICO""""",0,1,1,0,0,0:01:00,CM,0.02833,6,0.1,1428936,0.2,6864,0.3,0,0.5,0,1,0,5,0,"0"""
"""2005/01/13",15:52:52,"""""Lasair TWO""""","""""LasairII-110""""",36043,"""""""""",.,"""""RICO""""",0,1,1,0,0,0:01:00,CM,0.02832,6,0.1,1386154,0.2,6634,0.3,0,0.5,0,1,0,5,0,"0"""
"""2005/01/13",15:53:52,"""""Lasair TWO""""","""""LasairII-110""""",36043,"""""""""",.,"""""RICO""""",0,1,1,0,0,0:01:00,CM,0.02832,6,0.1,1357914,0.2,6073,0.3,0,0.5,0,1,0,5,0,"0"""
"""2005/01/13",15:54:52,"""""Lasair TWO""""","""""LasairII-110""""",36043,"""""""""",.,"""""RICO""""",0,1,1,0,0,0:01:00,CM,0.02831,6,0.1,1353087,0.2,7261,0.3,0,0.5,0,1,0,5,0,"0"""
"""2005/01/13",15:55:52,"""""Lasair TWO""""","""""LasairII-110""""",36043,"""""""""",.,"""""RICO""""",0,1,1,0,0,0:01:00,CM,0.02832,6,0.1,1360756,0.2,8084,0.3,0,0.5,0,1,0,5,0,"0"""
"""2005/01/13",15:56:52,"""""Lasair TWO""""","""""LasairII-110""""",36043,"""""""""",.,"""""RICO""""",0,1,1,0,0,0:01:00,CM,0.02831,6,0.1,1378315,0.2,10032,0.3,0,0.5,0,1,0,5,0,"0"""
"""2005/01/13",15:57:52,"""""Lasair TWO""""","""""LasairII-110""""",36043,"""""""""",.,"""""RICO""""",0,1,1,0,0,0:01:00,CM,0.02831,6,0.1,1418954,0.2,11048,0.3,0,0.5,0,1,0,5,0,"0"""
"""2005/01/13",15:58:52,"""""Lasair TWO""""","""""LasairII-110""""",36043,"""""""""",.,"""""RICO""""",0,1,1,0,0,0:01:00,CM,0.02832,6,0.1,1432097,0.2,10758,0.3,0,0.5,0,1,0,5,0,"0"""
"""2005/01/13",15:59:52,"""""Lasair TWO""""","""""LasairII-110""""",36043,"""""""""",.,"""""RICO""""",0,1,1,0,0,0:01:00,CM,0.02833,6,0.1,1439737,0.2,9802,0.3,0,0.5,0,1,0,5,0,"0"""